Niagara Falls, NY

5:00 AM EST on November 17, 2019 (GMT -0500)
Niagara Falls International

Weather History for KIAG - September, 2019

Change the Weather History Date:

Friday, September 20, 2019

  Actual Average Record
Temperature  
Mean Temperature 64 °F -  
Max Temperature 79 °F 68 °F 86 °F (2002)
Min Temperature 50 °F 49 °F 33 °F (1993)
Degree Days  
Heating Degree Days 1    
Growing Degree Days 14 (Base 50)    
Moisture  
Dew Point 54 °F    
Average Humidity 70    
Maximum Humidity 93    
Minimum Humidity 45    
Precipitation  
Precipitation 0.00 in - - ()
Sea Level Pressure  
Sea Level Pressure 30.19 in    
Wind  
Wind Speed 3 mph (South)    
Max Wind Speed 8 mph    
Max Gust Speed -    
Visibility 10 miles    
Events      
Averages and records for this station are not official NWS values.
T = Trace of Precipitation, MM = Missing Value Source: NWS Daily Summary

Daily Weather History Graph

Daily Weather History Graph

Search for Another Location

Airport or City:

Astronomy

Sep. 20, 2019 Rise Set
Actual Time 7:00 AM EDT 7:17 PM EDT
Civil Twilight 6:32 AM EDT 7:45 PM EDT
Nautical Twilight 5:58 AM EDT 8:18 PM EDT
Astronomical Twilight 5:24 AM EDT 8:53 PM EDT
Moon 10:56 PM EDT (9/20) 1:12 PM EDT (9/20)
Length of Visible Light 13h 13m
Length of Day
12h 16m
Waning Gibbous, 65% of the Moon is Illuminated
Sep 20
Waning Gibbous
Sep 21
Last Quarter
Sep 28
New
Oct 5
First Quarter
Oct 13
Full

Hourly Weather History & Observations

Time (EDT) Temp. Dew Point Humidity Pressure Visibility Wind Dir Wind Speed Gust Speed Precip Events Conditions
12:53 AM 55.9 °F 51.1 °F 84% 30.20 in 10.0 mi Calm Calm - N/A   Clear
1:53 AM 55.9 °F 51.1 °F 84% 30.19 in 10.0 mi South 3.5 mph - N/A   Clear
2:53 AM 55.0 °F 51.1 °F 86% 30.18 in 10.0 mi Calm Calm - N/A   Clear
3:53 AM 53.1 °F 50.0 °F 89% 30.19 in 10.0 mi Calm Calm - N/A   Clear
4:53 AM 52.0 °F 48.9 °F 89% 30.20 in 10.0 mi SE 4.6 mph - N/A   Clear
5:53 AM 50.0 °F 48.0 °F 93% 30.21 in 10.0 mi Calm Calm - N/A   Clear
6:53 AM 50.0 °F 48.0 °F 93% 30.22 in 10.0 mi Calm Calm - N/A   Clear
7:53 AM 53.1 °F 50.0 °F 89% 30.22 in 10.0 mi East 3.5 mph - N/A   Clear
8:53 AM 60.1 °F 54.0 °F 80% 30.23 in 10.0 mi South 4.6 mph - N/A   Clear
9:53 AM 64.9 °F 55.0 °F 70% 30.23 in 10.0 mi South 6.9 mph - N/A   Clear
10:53 AM 69.1 °F 55.9 °F 63% 30.22 in 10.0 mi South 8.1 mph - N/A   Clear
11:53 AM 72.0 °F 55.9 °F 57% 30.21 in 10.0 mi South 4.6 mph - N/A   Clear
12:53 PM 75.0 °F 55.0 °F 50% 30.19 in 10.0 mi Variable 5.8 mph - N/A   Clear
1:53 PM 77.0 °F 55.0 °F 47% 30.18 in 10.0 mi Variable 5.8 mph - N/A   Clear
2:53 PM 78.1 °F 55.0 °F 45% 30.16 in 10.0 mi SE 5.8 mph - N/A   Clear
3:53 PM 78.1 °F 55.9 °F 46% 30.15 in 10.0 mi SSE 5.8 mph - N/A   Clear
4:53 PM 78.1 °F 55.0 °F 45% 30.15 in 10.0 mi SSW 4.6 mph - N/A   Clear
5:53 PM 75.0 °F 54.0 °F 48% 30.16 in 10.0 mi South 6.9 mph - N/A   Clear
6:53 PM 72.0 °F 55.9 °F 57% 30.17 in 10.0 mi WSW 6.9 mph - N/A   Clear
7:53 PM 68.0 °F 55.9 °F 65% 30.17 in 10.0 mi SW 3.5 mph - N/A   Clear
8:53 PM 68.0 °F 55.9 °F 65% 30.17 in 10.0 mi Calm Calm - N/A   Clear
9:53 PM 66.0 °F 57.9 °F 75% 30.19 in 10.0 mi Calm Calm - N/A   Clear
10:53 PM 64.9 °F 57.0 °F 75% 30.18 in 10.0 mi Calm Calm - N/A   Clear
11:53 PM 62.1 °F 57.9 °F 86% 30.18 in 10.0 mi Calm Calm - N/A   Clear